Вернуться в каталог

DELTA 1 DEB

АктивенSSO
NORAD 39095·DEBRIS·🇺🇸 United States

Запущен Nov 6, 1973 с Vandenberg Space Force Base

Loading…

Ближайшие Пролёты (ближайшие 24 часа)

TLE

СвежийSource: Space-Track

Эпоха: Sep 13, 2026, 08:00 UTC

1 39095U 73086HH  26256.33391213 -.00000003  00000-0  35590-3 0  9995
2 39095 102.4828 274.7022 0059167  84.4406 276.3395 12.31008932588297

Отслеживайте DELTA 1 DEB в реальном времени с AllMySat

Download on the App Store